www.pogodaiklimat.ru

Погода и климат >> Архив погоды >> Аргентина >> Mendoza


ПОГОДА в Mendoza

  • Прогноз погоды в Mendoza
  • Монитор погоды в Mendoza
  • Климат города

АРХИВ ПОГОДЫ в Mendoza

Время (UTC), дата Ветер
(напр.,м/с)
 
Видим.   Явления Облачность Т
(С)
Тd
(С)
f
(%)
Тe
(С)
Тes
(С)
Комфортность P
(гПа)
Po
(гПа)
Тmin
(С)
Tmax
(С)
R
(мм)
R24
(мм)
S
(см)
21 18.04 штиль 0 15 км 9/8 450 м
[Cu Sc Ac As]
+15.0 +12.5 85 +15 +15 1014.3 933.8
00 19.04 штиль 0 15 км 10/10 1350 м
[Sc]
+14.4 +12.6 89 +14 +14 1015.7 935.0 +12.2 +15.5
03 19.04 штиль 0 15 км 9/9 450 м
[Sc]
+14.0 +13.3 96 +14 +14 1015.7 935.0
09 19.04 штиль 0 6000 м дымка {туман} 8/8 450 м
[]
+12.4 +12.4 100 +12 +12 1012.5 932.2
12 19.04 В 1 6000 м дымка {туман} 3/3 1350 м
[Sc]
+12.0 +11.6 97 +12 +12 1013.6 933.0 +12.0 +14.6 17
15 19.04 СВ 3 8000 м дымка {туман} 5/5 1350 м
[St]
+16.0 +12.5 80 +16 +20 1012.7 932.8
18 19.04 В 2 15 км {туман} 1/0
[Ac As]
+19.6 +13.1 66 +22 +30 комфорт 1010.3 930.9
21 19.04 В 2 15 км 1/0
[Ac As]
+21.4 +13.7 61 +24 +25 комфорт 1010.2 931.0
00 20.04 штиль 0 15 км 3/0
[Ac As Cc]
+17.4 +14.5 83 +17 +17 1014.1 934.0 +11.0 +22.0
03 20.04 Ю 2 15 км 9/4 1500 м
[Sc Ac As]
+17.6 +12.9 74 +18 +18 1014.1 934.5
06 20.04 Ю 1 15 км 10/6 1200 м
[Sc Ac As]
+16.6 +12.6 77 +17 +17 1012.5 933.4
09 20.04 штиль 0 15 км 9/8 1200 м
[Sc Ac As]
+15.2 +12.4 83 +15 +15 1011.5 932.5
12 20.04 В 2 15 км 9/6 1350 м
[Sc Ac As]
+15.8 +9.0 64 +16 +16 1012.2 932.6 +15.2 +18.2
15 20.04 В 2 15 км 9/6 1350 м
[Sc Ac As]
+16.8 +10.2 65 +17 +19 1012.4 933.0
18 20.04 Ю 2 15 км 10/9 1200 м
[Cu Sc Ac As]
+18.2 +11.9 67 +19 +19 1009.6 930.5
21 20.04 Ю 2 15 км 9/6 1350 м
[Sc Ac As]
+19.2 +11.9 63 +21 +21 комфорт 1009.2 930.1
00 21.04 Ю 3 15 км 9/8 1200 м
[Sc Ac As]
+17.8 +12.6 72 +18 +18 1011.7 932.2 +15.8 +19.6
03 21.04 штиль 0 15 км 6/3 1350 м
[Sc Ac As]
+17.0 +12.3 74 +17 +17 1013.1 933.6
06 21.04 штиль 0 15 км 6/3 1350 м
[Sc Ac As]
+16.0 +11.9 77 +16 +16 1012.7 933.3
09 21.04 штиль 0 15 км 4/0
[Ac As]
+15.0 +11.0 77 +15 +15 1013.0 933.6
12 21.04 Ю 2 15 км 10/4 900 м
[Frnb Ac cast]
+14.7 +10.7 77 +15 +15 1016.6 936.6 +13.5 +17.8
15 21.04 Ю 3 15 км слабая морось 10/6 900 м
[Frnb Ac cast]
+15.1 +11.5 79 +15 +15 1018.2 938.1
18 21.04 Ю 3 15 км {морось} 9/4 1350 м
[Sc Ac cast]
+16.3 +9.6 65 +16 +18 1016.0 936.1 0.0
21 21.04 Ю 3 15 км 9/3 1350 м
[Sc Ac cast]
+16.9 +9.5 62 +17 +17 1015.2 935.3
00 22.04 штиль 0 15 км 10/3 1350 м
[Sc Ac As]
+16.3 +9.8 65 +16 +16 1015.9 935.8 +14.7 +17.1
03 22.04 штиль 0 15 км 10/5 1350 м
[Sc Ac As]
+16.0 +10.1 68 +16 +16 1015.6 935.6
06 22.04 штиль 0 15 км 10/5 1200 м
[Sc Ac As]
+15.2 +9.8 70 +15 +15 1013.9 934.1
09 22.04 Ю 3 15 км 10/5 1350 м
[Sc Ac As]
+14.9 +10.9 77 +14 +14 1013.8 934.0
12 22.04 Ю 1 15 км 9/5 1200 м
[Sc Ac As]
+15.3 +9.9 70 +16 +16 1016.2 936.2 +14.5 +16.3 0.0
15 22.04 СВ 2 15 км 5/0
[Ac As Cc]
+19.3 +9.2 52 +21 +27 комфорт 1015.9 936.4
18 22.04 В 2 15 км 6/0
[Ac As Cc]
+21.8 +10.3 48 +24 +31 комфорт 1013.4 934.2
21 22.04 СВ 2 15 км 3/0
[Ac As Ci]
+22.0 +12.0 53 +24 +25 комфорт 1013.1 934.0
00 23.04 З 2 15 км ясно +18.3 +12.8 70 +19 +19 1014.8 935.2 +15.3 +23.0
03 23.04 штиль 0 15 км ясно +14.6 +12.3 86 +14 +14 1014.6 935.0
06 23.04 Ю 2 15 км 1/0
[Ac As]
+13.9 +12.3 90 +14 +14 1012.9 933.7
09 23.04 Ю 2 15 км 6/4 1500 м
[Sc Ac As]
+13.9 +11.7 87 +14 +14 1011.5 932.4
12 23.04 штиль 0 15 км 6/6 1500 м
[Sc]
+13.8 +11.1 84 +13 +14 1012.7 933.0 +13.4 +18.3
15 23.04 В 2 9000 м дым 5/4 1500 м
[Cu Sc Ac As]
+18.7 +12.3 66 +20 +25 1011.4 932.0
18 23.04 С 2 15 км 3/1 1500 м
[Cu Sc Ac As]
+21.1 +12.3 57 +23 +30 комфорт 1008.3 929.4
21 23.04 В 1 15 км 6/6 1350 м
[Cu Sc]
+21.0 +12.8 59 +25 +25 комфорт 1008.7 929.7
00 24.04 В 2 15 км 4/4 1200 м
[Sc]
+19.0 +13.4 70 +21 +21 комфорт 1011.3 931.8 +13.7 +22.4
03 24.04 ЮВ 4 15 км 9/9 900 м
[Sc]
+15.4 +9.8 69 +14 +14 1013.7 934.2
06 24.04 ЮВ 1 15 км в посл. час морось {дождь} 10/10 750 м
[Sc]
+14.8 +11.2 79 +15 +15 1013.1 933.8 0.0
09 24.04 В 2 15 км 10/10 210 м
[Frnb]
+13.6 +11.8 89 +13 +13 1012.7 933.4
12 24.04 Ю 3 6000 м слабая морось 10/4 450 м
[Frnb As op]
+13.6 +11.2 85 +13 +13 1013.2 933.6 +13.0 +19.0 0.0
15 24.04 штиль 0 15 км {морось} 8/8 1200 м
[Sc]
+16.5 +11.9 74 +16 +19 1012.4 932.6
18 24.04 С 2 9000 м дымка {морось} 8/8 1200 м
[Sc]
+16.7 +12.3 75 +17 +19 1009.2 929.7 0.0
21 24.04 штиль 0 15 км 5/4 1350 м
[Sc Ac As]
+17.8 +12.6 72 +18 +18 1007.4 928.1
00 25.04 З 1 15 км 3/0
[Ac As]
+15.0 +13.3 90 +15 +15 1008.2 928.4 +13.6 +18.6
03 25.04 З 1 15 км 3/0
[Ac As]
+14.0 +12.2 89 +14 +14 1008.2 928.6
06 25.04 ЮЗ 1 6000 м дымка 3/0
[Ac As]
+12.0 +11.3 95 +12 +12 1005.8 926.2
09 25.04 В 1 5000 м дымка ясно +10.8 +10.4 97 +10 +10 1006.0 926.4
12 25.04 ЮВ 5 10 км гроза, ливневой дождь 10/10 1050 м
[Cb cap]
+12.4 +11.3 93 +10 +10 1010.1 930.0 +10.8 +15.0 0.1
15 25.04 ЮВ 5 15 км в посл. час дождь {гроза} 9/9 450 м
[Cu Sc]
+14.0 +9.5 74 +12 +13 1013.5 933.2

 

Местоположение метеостанции Mendoza (Аргентина): широта -32.83 долгота -68.78 высота над уровнем моря 704 м.

В архиве по умолчанию представлена погода в Mendoza за последнюю неделю. Архивные данные за месяц целиком и за предыдущие месяцы, начиная с января 2011 года, Вы можете получить, выбрав интересующий диапазон дат из раскрывающегося списка и нажав кнопку "Ввод!".

Внимание! Время в таблицах - всемирное. Для получения местного времени необходимо прибавить поправку, которая в Mendoza равна -3 ч.

Смотрите также архив погоды в соседних городах и на ближайших метеорологических станциях:

Погода в San Martin (Аргентина) (44 км)
Погода в San Juan (Аргентина) (163 км)
Погода в Santiago (Чили) (189 км)
Погода в Pudahuel (Чили) (196 км)
Погода в San Rafael (Аргентина) (198 км)
Погода в San Luis (Аргентина) (232 км)
Погода в Punta Angeles (Чили) (268 км)
Погода в San Antonio (Чили) (275 км)
Погода в Santo Domingo (Чили) (279 км)
Погода в Malargue (Аргентина) (306 км)

Пояснения к столбцам:

Ветер - указаны скорость ветра в м/с - средняя за 10 мин, порывы в срок и между сроками (в фигурных скобках) и направление, откуда дует ветер: С - северный, СВ - северо-восточный, В - восточный, ЮВ - юго-восточный, Ю - южный, ЮЗ - юго-западный, З - западный, СЗ - северо-западный.
Видимость - горизонтальная дальность видимости в метрах или километрах. При видимости от 1 до 10 км при отсутствии осадков обычно наблюдается дымка, при ухудшении видимости до 1 км и менее - туман. В сухую погоду видимость может ухудшаться дымом, пылью или мглою.
Явления - указаны атмосферные явления, наблюдавшиеся в срок или в последний час перед сроком; фигурными скобками обозначены явления, наблюдавшиеся между сроками (за 1-3 часа до срока); квадратными скобками обозначены град или гололедные отложения с указанием их диаметра в мм.
Облачность - указаны через наклонную черту общая и нижняя облачность в баллах и высота нижней границы облаков в метрах; квадратными скобками обозначены формы облаков: Ci - перистые, Cs - перисто-слоистые, Cc - перисто-кучевые, Ac - высококучевые, As - высокослоистые, Sc - слоисто-кучевые, Ns - слоисто-дождевые, Cu - кучевые, Cb - кучево-дождевые. Подробнее классификацию облаков см. в Атласе облаков (PDF).
T - Температура воздуха - температура, измеренная на высоте 2 м над землей.
Td - Температура точки росы - температура, при понижении до которой содержащийся в воздухе водяной пар достигнет насыщения.
f - Относительная влажность воздуха - влажноcть воздуха, измеренная на высоте 2 м над землей.
Te - Эффективная температура - температура, которую ощущает одетый по сезону человек в тени. Характеристика душности погоды. При расчете учитывается влияние влажности воздуха и скорости ветра на теплоощущения человека.
Tes - Эффективная температура на солнце - температура, которую ощущает человек, с поправкой на солнечный нагрев. Характеристика знойности погоды. Зависит от высоты солнца над горизонтом, облачности и скорости ветра. Ночью, в пасмурную погоду, а также при ветре 12 м/с и более поправка равна нулю.
P - Атмосферное давление - приведенное к уровню моря атмосферное давление.
Po - Атмосферное давление - измеренное на уровне метеостанции атмосферное давление.
Tmin - Минимальная температура - минимум температуры воздуха на высоте 2 м над землей.
Tmax - Максимальная температура - максимум температуры воздуха на высоте 2 м над землей.
R - Количество осадков - Количество выпавших осадков за период времени, мм. При наведении курсора мыши на число - период времени, за который выпало указанное количество осадков.
R24 - Количество осадков - Количество выпавших осадков за 24 часа, мм.
S - Снежный покров - Высота снежного покрова, см. При наведении курсора мыши на число - состояние снежного покрова и степень покрытия местности в баллах.